This demonstration page uses our WeatherBlox Daily Observations layout. Learn more.

Left ArrowRight Arrow

Hourly Observations for January 18, 2022

Temp ( °F °C ) Dew Point ( °F °C ) Humidity (%) Winds ( mph kmh ) Pressure ( in mb ) Visibility ( mi km ) Precip ( " mm )
12:53 am 00:53 Clear 48 8.9 12 -11.1 23 23 WSW 12 19 29.88 1012 10 16 0.00 0.00
1:53 am 01:53 Clear 47 8.3 14 -10 26 26 NW 10 17 29.86 1011 10 16 0.00 0.00
2:53 am 02:53 Clear 48 8.9 18 -7.8 30 30 WSW 7 11 29.85 1011 10 16 0.00 0.00
3:53 am 03:53 Clear 45 7.2 19 -7.2 35 35 NNW 6 9 29.85 1011 10 16 0.00 0.00
4:53 am 04:53 Clear 48 8.9 22 -5.6 36 36 W 6 9 29.84 1011 10 16 0.00 0.00
5:53 am 05:53 Clear 50 10 24 -4.4 36 36 W 7 11 29.84 1010 10 16 0.00 0.00
6:53 am 06:53 Clear 49 9.4 25 -3.9 39 39 W 9 15 29.87 1011 10 16 0.00 0.00
7:53 am 07:53 Sunny 50 10 26 -3.3 39 39 W 14 22 29.88 1012 10 16 0.00 0.00
8:53 am 08:53 Sunny 53 11.7 26 -3.3 35 35 W 9 15 29.89 1012 10 16 0.00 0.00
9:53 am 09:53 Sunny 61 16.1 28 -2.2 29 29 WSW 15 24 29.90 1012 10 16 0.00 0.00
10:53 am 10:53 Sunny 66 18.9 30 -1.1 26 26 WSW 22 35 29.90 1012 10 16 0.00 0.00
12:53 pm 12:53 undefined 71 21.7 31 -0.6 23 23 undefined N/A 29.82 1010 10 16 0.00 0.00
2:53 pm 14:53 Sunny 73 22.8 30 -1.1 20 20 W 24 39 29.75 1007 10 16 0.00 0.00
3:53 pm 15:53 Sunny 73 22.8 30 -1.1 20 20 W 24 39 29.74 1007 10 16 0.00 0.00
4:53 pm 16:53 Sunny 71 21.7 31 -0.6 23 23 WSW 23 37 29.76 1008 10 16 0.00 0.00
5:53 pm 17:53 Sunny 68 20 32 0 26 26 W 24 39 29.77 1008 10 16 0.00 0.00
6:53 pm 18:53 Clear 66 18.9 32 0 28 28 W 17 28 29.80 1009 10 16 0.00 0.00
7:53 pm 19:53 Clear 63 17.2 33 0.6 33 33 W 13 20 29.82 1010 10 16 0.00 0.00
8:53 pm 20:53 Clear 62 16.7 34 1.1 35 35 WSW 12 19 29.82 1010 10 16 0.00 0.00
9:53 pm 21:53 Mostly Clear 58 14.4 34 1.1 41 41 WSW 6 9 29.83 1010 10 16 0.00 0.00
10:53 pm 22:53 Mostly Clear 57 13.9 34 1.1 42 42 WSW 9 15 29.83 1010 10 16 0.00 0.00
11:53 pm 23:53 Clear 55 12.8 35 1.7 47 47 W 12 19 29.84 1010 10 16 0.00 0.00

Powered by AerisWeather